Regional Weather Roundup
Issued by NWS

Home | Current Version | Previous Version | Text Only | Print | Product List | Glossary On
Versions: 1 2 3 4 5 6 7 8 9 10 11 12 13 14 15 16 17 18 19 20 21 22 23 24 25 26
000
ASUS42 KTBW 231417
RWRFL
FLORIDA REGIONAL WEATHER ROUNDUP
NATIONAL WEATHER SERVICE TAMPA BAY RUSKIN FL
1000 AM EDT MON APR 23 2018

NOTE: "FAIR" INDICATES FEW OR NO CLOUDS BELOW 12,000 FEET WITH NO
SIGNIFICANT WEATHER AND/OR OBSTRUCTIONS TO VISIBILITY.

FLZ001>010-012>015-112-114-115-231500-
PANHANDLE FLORIDA

CITY           SKY/WX    TMP DP  RH WIND       PRES   REMARKS
PENSACOLA        N/A     70  61  73 NW5       29.94R
PENSACOLA NAS  PTSUNNY   69  62  78 VRB5      29.94S
MILTON NAS     PTSUNNY   68  65  90 E3        29.94
CRESTVIEW      PTSUNNY   68  64  87 VRB3      29.96S
DUKE FIELD     PTSUNNY   70  65  85 S7        29.94S
VALPARAISO     PTSUNNY   72  66  80 SW7       29.93F
TRI COUNTY     CLOUDY    70  69  97 SW3       29.95S
PANAMA CITY    PTSUNNY   73  68  84 SW13      29.94S
APALACHICOLA   FAIR      76  73  91 SW12      29.96S

STATION/POSITION SKY/WX   TEMP    WIND        PRES    WAVE   SWELL
                          AIR SEA DIR/SP/G            HT/PER HT/PER
                          (F)     (DEG/KT/KT) (MB)    (FT/S) (FT/S)
30.1N   87.6W              65     290/ 10/ 12 1014.9
29.2N   88.2W                 71  290/ 12/ 17 1016.1R   4/ 6   2/ 9
28.8N   86.0W              74 74  250/ 14/ 16 1014.4R   4/ 6   2/10
PANAMA CITY BEAC           70 70  260/  9/ 10 1014.5S
TOWER C                    71     190/ 14/ 16 1015.1R

$$
FLZ011-016>038-118-127-128-134-139-239-231500-
NORTH FLORIDA

CITY           SKY/WX    TMP DP  RH WIND       PRES   REMARKS
MARIANNA       PTSUNNY   72  69  90 SW7       29.95S
TALLAHASSEE    CLOUDY    73  70  90 S10       29.97R
PERRY          PTSUNNY   75  69  81 S7        30.00R
LIVE OAK       PTSUNNY   73  72  94 VRB6      30.02R
CROSS CITY     CLOUDY    73  72  98 S9        30.01R
LAKE CITY      CLOUDY    70  68  94 S7        30.01S
GAINESVILLE    CLOUDY    74  70  87 S7        30.05R
WILLISTON      PTSUNNY   75  73  94 SE6       30.03S
PALATKA        PTSUNNY   73  73 100 S12G17    30.04R FOG
MAYPORT NAS    CLOUDY    73  70  90 S9        30.03S
JACKSONVILLE   CLOUDY    75  71  87 S12       30.02R
JAX NAS        PTSUNNY   74  71  91 S12       30.04R
JAX CECIL      NOT AVBL
FERNANDINA BEA CLOUDY    73  70  92 S5        30.02S
ST AUGUSTINE   LGT RAIN  72  70  94 E3        30.04F
PALM COAST     CLOUDY    73  72  94 S12       30.04R VSB 1

STATION/POSITION SKY/WX   TEMP    WIND        PRES    WAVE   SWELL
                          AIR SEA DIR/SP/G            HT/PER HT/PER
                          (F)     (DEG/KT/KT) (MB)    (FT/S) (FT/S)
SHELL POINT      NOT AVBL
KEATON BEACH               73     180/ 14/ 15 1015.9R
CEDAR KEY                  73     180/ 11/ 13 1016.5F
FERNANDINA                 71 68  140/  6/  9 1017.6R
30.7N   81.3W                 66                N/A     7/ 8
MAYPORT                    72 67  190/  7/ 10 1017.0F
31.4N   80.9W              68 65  130/ 16/ 23 1016.8R   8/ 8   7/ 8
ST AUGUSTINE               69 68  170/  4/  4 1017.4R

$$
FLZ040-043>046-052-053-057-058-063-144-231500-
INTERIOR CENTRAL FLORIDA

CITY           SKY/WX    TMP DP  RH WIND       PRES   REMARKS
OCALA          CLOUDY    72  69  90 S16       30.03S
LEESBURG       LGT RAIN  74  73  97 S12       30.05R
SANFORD        FAIR      76  70  82 S8        30.04R
ORLANDO EXEC   FAIR      77  72  84 S9        30.05R
ORLANDO INTL   PTSUNNY   77  71  82 S13       30.05R
KISSIMMEE      CLOUDY    78  72  81 S10       30.06R
WINTER HAVEN   FAIR      77  72  84 S8        30.06R
LAKELAND       PTSUNNY   75  72  88 S10       30.05S
BARTOW         PTSUNNY   75  73  94 S9        30.05S
SEBRING        FAIR      81  72  75 S13       30.05S
OKEECHOBEE     FAIR      79  72  78 S9G17     30.05S

$$
FLZ041-047-054-059-064-141-147-231500-
EAST CENTRAL FLORIDA

CITY           SKY/WX    TMP DP  RH WIND       PRES   REMARKS
ORMOND BEACH   PTSUNNY   73  72  94 S12G18    30.04S FOG
DAYTONA BEACH  PTSUNNY   76  73  91 S8        30.04S
DELAND         CLOUDY    77  72  83 S14       30.04S
NEW SMYRNA BEA PTSUNNY   77  72  83 S12       30.05S
JFK SPACE CTR  FAIR      78  74  85 S13       30.04S
TITUSVILLE     MOSUNNY   81  72  74 S12       30.05R
CAPE CANAVERAL FAIR      79  73  82 S13       30.03S
MELBOURNE      FAIR      80  72  76 S13       30.05R
VERO BEACH     FAIR      80  71  74 S13       30.05S
FT PIERCE      FAIR      81  72  74 S14       30.05S
STUART         MOSUNNY   82  72  69 S9        30.07R

STATION/POSITION SKY/WX   TEMP    WIND        PRES    WAVE   SWELL
                          AIR SEA DIR/SP/G            HT/PER HT/PER
                          (F)     (DEG/KT/KT) (MB)    (FT/S) (FT/S)
28.5N   80.2W              75 73  170/ 10/ 16 1017.8
28.9N   78.5W              74 75  120/ 23/ 31 1019.7R   9/ 8
TRIDENT PIER               76 76  160/  8/ 12 1018.9R
28.4N   80.5W                 75                N/A     4/ 8
27.5N   80.2W                 75                N/A     5/ 8

$$
FLZ050-056-061-142-242-148-248-149-249-151-251-155-255-
160-260-231500-
WEST CENTRAL FLORIDA

CITY           SKY/WX    TMP DP  RH WIND       PRES   REMARKS
CRYSTAL RIVER  CLOUDY    72  70  94 S3        30.03S
INVERNESS      CLOUDY    70  70 100 CALM      30.05R
BROOKSVILLE    LGT RAIN  73  71  93 SE6       30.04S
CLEARWATER AIR CLOUDY    73  73 100 SE6       30.02F
ST PETE CLEARW PTSUNNY   77  73  87 S7        30.02F
TAMPA INTL     PTSUNNY   77  72  84 S8        30.04S
TAMPA EXEC     LGT RAIN  75  72  88 S7        30.04F
MACDILL AFB    PTSUNNY   75  72  89 S6        30.03S
PETER O KNIGHT PTSUNNY  N/A N/A N/A S7        30.04S
ST PETERSBURG  CLOUDY    76  72  87 S9        30.01F
SARASOTA       PTSUNNY   79  72  79 S10       30.02S
VENICE         PTSUNNY   82  73  74 S13       30.04S

STATION/POSITION SKY/WX   TEMP    WIND        PRES    WAVE   SWELL
                          AIR SEA DIR/SP/G            HT/PER HT/PER
                          (F)     (DEG/KT/KT) (MB)    (FT/S) (FT/S)
27.3N   84.2W                 74                N/A     3/ 6
CLEARWATER BEACH           75 75  140/  5/  8 1016.5F
MIDDLE TAMPA BAY           75     180/  7/  9 1017.0F
VENICE                     76 77  170/  9/ 10 1017.3R

$$
FLZ066-069-070-075>078-162-262-165-265-231500-
SOUTHWEST FLORIDA AND KEYS

CITY           SKY/WX    TMP DP  RH WIND       PRES   REMARKS
PUNTA GORDA    FAIR      81  70  69 S9        30.05S
FT MYERS       FAIR      81  73  76 S13       30.02F
SOUTHWEST INTL FAIR      80  73  79 S16       30.04R
NAPLES         FAIR      81  76  84 S9        30.03F
MARCO ISLAND   PTSUNNY   81  74  79 SE12      30.05S
IMMOKALEE      FAIR      84  73  70 S12       30.05S
MARATHON       FAIR      84  73  69 SE9G16    30.04R
KEY WEST NAS   PTSUNNY   80  74  81 SE12      30.04R
KEY WEST INTL  FAIR      81  75  82 SE12      30.04R

STATION/POSITION SKY/WX   TEMP    WIND        PRES    WAVE   SWELL
                          AIR SEA DIR/SP/G            HT/PER HT/PER
                          (F)     (DEG/KT/KT) (MB)    (FT/S) (FT/S)
NAPLES                     80 79              1016.7F
26.0N   85.6W              77 79  190/ 14/ 16 1016.0
DRY TORTUGAS               78     160/  8/  9 1017.2R
SAND KEY                   78                 1017.2R
SOMBRERO KEY               79     130/ 13/ 15 1016.6R
LONG KEY                   80 81  160/ 12/ 13 1017.1R
MOLASSES REEF                     170/  9       N/A

$$
FLZ067-068-071>074-168-172>174-231500-
SOUTHEAST FLORIDA

CITY           SKY/WX    TMP DP  RH WIND       PRES   REMARKS
W PALM BEACH   FAIR      78  71  79 S13       30.06R
FT LAUDER-EXEC FAIR      77  75  93 E3        30.06S
FT LAUDERDALE  PTSUNNY   80  76  87 SE13      30.05S
POMPANO BEACH  CLOUDY    79  75  87 SE9       30.06S
PEMBROKE PINES PTSUNNY   81  74  79 S10       30.07R
OPA LOCKA      FAIR      82  73  74 SE10      30.06R
MIAMI          LGT RAIN  75  73  93 SE7       30.06R
WEST KENDALL   FAIR      82  70  66 SE10      30.05R
HOMESTEAD      FAIR      83  73  70 SE13      30.04S

STATION/POSITION SKY/WX   TEMP    WIND        PRES    WAVE   SWELL
                          AIR SEA DIR/SP/G            HT/PER HT/PER
                          (F)     (DEG/KT/KT) (MB)    (FT/S) (FT/S)
PORT EVERGLADES            79     140/ 11/ 14 1017.9
VIRGINIA KEY               80 80  130/ 11/ 16 1017.2R
LAKE WORTH                 78 77  180/ 13/ 16 1019.0R
FOWEY ROCKS                78 78  140/ 14/ 15 1018.4R
SETTLEMENT POINT           77     140/ 10/ 15 1018.7R

$$





USA.gov is the U.S. government's official web portal to all federal, state and local government web resources and services.